Location: Chiroubles
(46.1812°N, 4.6660°E)
Time: 00:40:20
(UTC+00:00)

Cosmos 1812 - Pass Details

Date: 15 August 2020
Orbit: 517 x 521 km, 82.5° (Epoch: 19 September)

Event Time Altitude Azimuth Distance (km) Brightness Sun altitude
Rises 19:14:29 0° 350° (N) 2,651 6.9 -4.8°
Reaches altitude 10° 19:16:37 10° 351° (N) 1,758 5.9 -5.1°
Maximum altitude 19:20:29 88° 258° (WSW) 525 2.8 -5.7°
Drops below altitude 10° 19:24:19 10° 173° (S) 1,743 5.1 -6.3°
Sets 19:26:26 0° 173° (S) 2,626 5.9 -6.6°
